EZY37FA LEPA-EGGW

Flight info

Callsign EZY37FA
Flight time N/A
Altitude 36000
Route GALAT N861 OLOXO DCT OKABI DCT TOU DCT TUPAR UN861 DIKRO UM185 TELTU
Aircraft A320/M-SDE2E3FGHIRWXY/LB1

Departure

Time 2026-05-04 17:06
Airport Palma de Mallorca Airport (LEPA)

Arrival

Time N/A
Airport London Luton Airport (EGGW)
Time Latitude Longitude Altitude Speed Heading
2026-05-04 16:10 39.54541 2.73276 30 ft 0 kts 345°
2026-05-04 16:17 39.54540 2.73276 30 ft 0 kts 345°
2026-05-04 16:44 39.54467 2.73265 29 ft 2 kts 58°
2026-05-04 16:51 39.54467 2.73264 29 ft 0 kts 58°
2026-05-04 16:51 39.54472 2.73275 28 ft 8 kts 58°
2026-05-04 16:52 39.54560 2.73464 30 ft 22 kts 58°
2026-05-04 16:52 39.54640 2.73620 30 ft 20 kts 59°
2026-05-04 16:53 39.54768 2.73900 30 ft 16 kts 58°
2026-05-04 16:53 39.54986 2.73998 30 ft 11 kts 356°
2026-05-04 16:54 39.55050 2.73954 30 ft 11 kts 328°
2026-05-04 16:55 39.55547 2.73562 30 ft 21 kts 328°
2026-05-04 16:55 39.55706 2.73541 38 ft 11 kts 67°
2026-05-04 16:56 39.55758 2.73718 38 ft 16 kts 57°
2026-05-04 16:56 39.55967 2.74158 38 ft 24 kts 59°
2026-05-04 16:57 39.56085 2.74294 38 ft 17 kts 33°
2026-05-04 16:57 39.56145 2.74346 38 ft 0 kts 34°
2026-05-04 17:01 39.56167 2.74364 38 ft 3 kts 28°
2026-05-04 17:02 39.56237 2.74328 38 ft 9 kts 296°
2026-05-04 17:02 39.56213 2.74226 38 ft 0 kts 240°
2026-05-04 17:05 39.56077 2.73943 37 ft 72 kts 238°
2026-05-04 17:05 39.55151 2.71989 117 ft 169 kts 237°
2026-05-04 17:06 39.53795 2.69180 1207 ft 197 kts 235°
2026-05-04 17:06 39.53012 2.67644 1709 ft 210 kts 235°
2026-05-04 17:07 39.51387 2.64459 3238 ft 213 kts 237°
2026-05-04 17:07 39.50837 2.63377 3805 ft 212 kts 237°
2026-05-04 17:07 39.49766 2.61270 4922 ft 211 kts 236°
2026-05-04 17:07 39.48946 2.59667 5724 ft 211 kts 236°
2026-05-04 17:08 39.48131 2.58073 6502 ft 212 kts 236°
2026-05-04 17:08 39.47541 2.54168 7262 ft 261 kts 289°
2026-05-04 17:08 39.48702 2.52263 7893 ft 282 kts 316°
2026-05-04 17:09 39.50287 2.50730 8660 ft 288 kts 320°
2026-05-04 17:09 39.51975 2.49292 9485 ft 292 kts 322°
2026-05-04 17:09 39.53709 2.47877 10236 ft 298 kts 322°
2026-05-04 17:10 39.57448 2.44776 10940 ft 334 kts 322°
2026-05-04 17:10 39.63366 2.39706 13087 ft 345 kts 321°
2026-05-04 17:11 39.65369 2.37967 13850 ft 347 kts 321°
2026-05-04 17:11 39.67380 2.36213 14514 ft 350 kts 321°
2026-05-04 17:11 39.71450 2.32663 15770 ft 355 kts 321°
2026-05-04 17:12 39.73509 2.30869 16391 ft 358 kts 321°
2026-05-04 17:12 39.77685 2.27231 17627 ft 364 kts 321°
2026-05-04 17:13 39.84074 2.21653 19298 ft 373 kts 322°
2026-05-04 17:14 39.90608 2.15945 20883 ft 382 kts 322°
2026-05-04 17:14 39.92793 2.14036 21415 ft 384 kts 322°
2026-05-04 17:14 39.97270 2.10108 22435 ft 391 kts 321°
2026-05-04 17:15 39.99525 2.08121 22949 ft 393 kts 321°
2026-05-04 17:15 40.04095 2.04088 23861 ft 399 kts 321°
2026-05-04 17:16 40.08724 2.00013 24668 ft 405 kts 321°
2026-05-04 17:16 40.16046 1.94291 25805 ft 419 kts 335°
2026-05-04 17:17 40.18882 1.93264 26171 ft 427 kts 345°
2026-05-04 17:17 40.27749 1.91230 27236 ft 435 kts 346°
2026-05-04 17:18 40.30736 1.90540 27584 ft 437 kts 346°
2026-05-04 17:18 40.36755 1.89137 28269 ft 442 kts 346°
2026-05-04 17:19 40.42843 1.87716 28918 ft 447 kts 346°
2026-05-04 17:19 40.48948 1.86282 29532 ft 451 kts 346°
2026-05-04 17:20 40.55154 1.84825 30103 ft 455 kts 345°
2026-05-04 17:20 40.61423 1.83356 30587 ft 459 kts 345°
2026-05-04 17:20 40.64574 1.82614 30823 ft 461 kts 345°
2026-05-04 17:21 40.70921 1.81130 31318 ft 463 kts 345°
2026-05-04 17:21 40.77252 1.79643 31964 ft 462 kts 345°
2026-05-04 17:22 40.80415 1.78897 32288 ft 461 kts 345°
2026-05-04 17:22 40.83572 1.78151 32612 ft 460 kts 345°
2026-05-04 17:23 40.93014 1.75920 33556 ft 459 kts 345°
2026-05-04 17:23 40.96154 1.75173 33872 ft 458 kts 344°
2026-05-04 17:23 41.02418 1.73673 34413 ft 457 kts 344°
2026-05-04 17:24 41.05551 1.72934 34665 ft 457 kts 345°
2026-05-04 17:24 41.15049 1.71359 35367 ft 460 kts 349°
2026-05-04 17:25 41.18226 1.70946 35592 ft 459 kts 349°
2026-05-04 17:25 41.24580 1.70070 35922 ft 457 kts 348°
2026-05-04 17:26 41.30871 1.69112 35939 ft 453 kts 348°
2026-05-04 17:27 41.45187 1.66868 35939 ft 454 kts 348°
2026-05-04 17:28 41.57718 1.64907 35935 ft 453 kts 347°
2026-05-04 17:29 41.76522 1.61933 35933 ft 454 kts 347°
2026-05-04 17:31 41.92190 1.59455 35939 ft 455 kts 347°
2026-05-04 17:31 42.01615 1.57955 36072 ft 459 kts 347°
2026-05-04 17:32 42.06963 1.57104 35909 ft 463 kts 348°
2026-05-04 17:33 42.19729 1.55082 35945 ft 463 kts 348°
2026-05-04 17:34 42.32553 1.53032 35941 ft 465 kts 348°
2026-05-04 17:35 42.48621 1.50452 35953 ft 465 kts 348°
2026-05-04 17:36 42.55048 1.49410 35946 ft 465 kts 348°
2026-05-04 17:36 42.61473 1.48371 35950 ft 465 kts 348°
2026-05-04 17:37 42.67910 1.47340 35957 ft 466 kts 348°
2026-05-04 17:37 42.74356 1.46313 35962 ft 466 kts 348°
2026-05-04 17:38 42.80802 1.45276 35964 ft 466 kts 348°
2026-05-04 17:38 42.87249 1.44235 35968 ft 467 kts 348°
2026-05-04 17:39 42.96942 1.42664 35963 ft 468 kts 348°
2026-05-04 17:39 43.03417 1.41605 36006 ft 471 kts 349°
2026-05-04 17:40 43.09952 1.40533 35976 ft 475 kts 349°
2026-05-04 17:40 43.16471 1.39479 35972 ft 475 kts 349°
2026-05-04 17:41 43.23042 1.38407 35970 ft 476 kts 349°
2026-05-04 17:41 43.29615 1.37324 35965 ft 476 kts 349°
2026-05-04 17:42 43.36185 1.36240 35959 ft 476 kts 349°
2026-05-04 17:42 43.42769 1.35162 35955 ft 476 kts 349°
2026-05-04 17:43 43.49355 1.34084 35950 ft 477 kts 349°
2026-05-04 17:43 43.55934 1.32999 35948 ft 477 kts 349°
2026-05-04 17:44 43.62527 1.31905 35947 ft 477 kts 349°
2026-05-04 17:44 43.68991 1.30179 35948 ft 469 kts 335°
2026-05-04 17:45 43.74853 1.26370 35951 ft 465 kts 328°
2026-05-04 17:45 43.80657 1.22400 35952 ft 466 kts 329°
2026-05-04 17:46 43.86465 1.18431 35951 ft 466 kts 329°
2026-05-04 17:46 43.92242 1.14478 35954 ft 466 kts 329°
2026-05-04 17:47 43.98060 1.10480 35953 ft 466 kts 329°
2026-05-04 17:47 44.02533 1.07403 35955 ft 467 kts 329°
2026-05-04 17:48 44.08348 1.03392 35955 ft 466 kts 329°
2026-05-04 17:48 44.14158 0.99365 35952 ft 467 kts 329°
2026-05-04 17:49 44.19968 0.95347 35949 ft 467 kts 329°
2026-05-04 17:49 44.25786 0.91312 35950 ft 466 kts 329°
2026-05-04 17:50 44.31592 0.87266 35951 ft 466 kts 329°
2026-05-04 17:50 44.37393 0.83217 35953 ft 466 kts 329°
2026-05-04 17:51 44.43199 0.79167 35951 ft 466 kts 329°
2026-05-04 17:51 44.49001 0.75108 35953 ft 467 kts 329°
2026-05-04 17:52 44.54769 0.71052 35950 ft 467 kts 329°
2026-05-04 17:52 44.60579 0.66959 35937 ft 467 kts 329°
2026-05-04 17:53 44.66386 0.62861 35932 ft 467 kts 329°
2026-05-04 17:53 44.72201 0.58754 35923 ft 468 kts 329°
2026-05-04 17:54 44.78008 0.54640 35923 ft 468 kts 329°
2026-05-04 17:54 44.83823 0.50512 35919 ft 468 kts 329°
2026-05-04 17:55 44.89636 0.46379 35919 ft 468 kts 329°
2026-05-04 17:55 44.95453 0.42231 35929 ft 468 kts 329°
2026-05-04 17:56 45.01263 0.38077 35940 ft 468 kts 329°
2026-05-04 17:56 45.07077 0.33906 35945 ft 469 kts 329°
2026-05-04 17:57 45.12888 0.29722 35948 ft 469 kts 329°
2026-05-04 17:57 45.18701 0.25537 35952 ft 469 kts 329°
2026-05-04 17:58 45.24522 0.21337 35956 ft 469 kts 329°
2026-05-04 17:58 45.30326 0.17132 35955 ft 469 kts 329°
2026-05-04 17:59 45.36136 0.12919 35954 ft 469 kts 329°
2026-05-04 18:00 45.44811 0.06627 35957 ft 469 kts 329°
2026-05-04 18:00 45.50609 0.02384 35955 ft 468 kts 329°
2026-05-04 18:01 45.56408 -0.01859 35955 ft 468 kts 329°
2026-05-04 18:01 45.62201 -0.06099 35955 ft 468 kts 329°
2026-05-04 18:02 45.70884 -0.12453 35949 ft 467 kts 329°
2026-05-04 18:02 45.76672 -0.16715 35951 ft 467 kts 329°
2026-05-04 18:03 45.82442 -0.20992 35955 ft 467 kts 329°
2026-05-04 18:03 45.88211 -0.25272 35958 ft 467 kts 329°
2026-05-04 18:04 45.93991 -0.29549 35950 ft 467 kts 330°
2026-05-04 18:05 46.02659 -0.35984 35957 ft 468 kts 329°
2026-05-04 18:05 46.08440 -0.40315 35949 ft 468 kts 329°
2026-05-04 18:06 46.17112 -0.46812 35964 ft 469 kts 329°
2026-05-04 18:06 46.22898 -0.51152 35955 ft 469 kts 329°
2026-05-04 18:07 46.28642 -0.55486 35963 ft 469 kts 329°
2026-05-04 18:07 46.34469 -0.59886 35962 ft 469 kts 329°
2026-05-04 18:08 46.40224 -0.64208 35966 ft 470 kts 332°
2026-05-04 18:08 46.46508 -0.66888 35965 ft 475 kts 352°
2026-05-04 18:09 46.59669 -0.69084 35963 ft 476 kts 352°
2026-05-04 18:10 46.66243 -0.70196 35962 ft 476 kts 352°
2026-05-04 18:10 46.72823 -0.71311 35964 ft 476 kts 352°
2026-05-04 18:11 46.79399 -0.72421 35964 ft 475 kts 352°
2026-05-04 18:11 46.85969 -0.73538 35967 ft 475 kts 352°
2026-05-04 18:12 46.92524 -0.74654 35960 ft 475 kts 352°
2026-05-04 18:12 46.99086 -0.75772 35961 ft 474 kts 352°
2026-05-04 18:13 47.05640 -0.76890 35962 ft 474 kts 352°
2026-05-04 18:14 47.15457 -0.78570 35957 ft 473 kts 352°
2026-05-04 18:14 47.22000 -0.79692 35956 ft 473 kts 352°
2026-05-04 18:15 47.35066 -0.81956 35950 ft 473 kts 352°
2026-05-04 18:16 47.41596 -0.83090 35946 ft 472 kts 352°
2026-05-04 18:16 47.48083 -0.84212 35946 ft 472 kts 352°
2026-05-04 18:17 47.57881 -0.85825 35943 ft 472 kts 354°
2026-05-04 18:18 47.67696 -0.86936 35949 ft 472 kts 355°
2026-05-04 18:18 47.74246 -0.87666 35949 ft 472 kts 355°
2026-05-04 18:19 47.84049 -0.88881 35949 ft 471 kts 354°
2026-05-04 18:19 47.90580 -0.89709 35949 ft 471 kts 354°
2026-05-04 18:20 47.97107 -0.90520 35950 ft 471 kts 354°
2026-05-04 18:20 48.03594 -0.91316 35949 ft 471 kts 354°
2026-05-04 18:21 48.10124 -0.92118 35950 ft 471 kts 354°
2026-05-04 18:21 48.16651 -0.92931 35955 ft 471 kts 354°
2026-05-04 18:22 48.23172 -0.93747 35962 ft 470 kts 354°
2026-05-04 18:22 48.29688 -0.94561 35965 ft 470 kts 354°
2026-05-04 18:23 48.36197 -0.95371 35968 ft 469 kts 354°
2026-05-04 18:23 48.42707 -0.96189 35972 ft 469 kts 354°
2026-05-04 18:24 48.48113 -0.96872 35977 ft 469 kts 354°
2026-05-04 18:24 48.54603 -0.97695 35979 ft 469 kts 354°
2026-05-04 18:25 48.60617 -0.98459 35981 ft 469 kts 354°
2026-05-04 18:25 48.67112 -0.99281 35983 ft 468 kts 354°
2026-05-04 18:26 48.73612 -1.00102 35983 ft 468 kts 354°
2026-05-04 18:26 48.80097 -1.00930 35989 ft 468 kts 354°
2026-05-04 18:27 48.86590 -1.01754 35993 ft 468 kts 354°
2026-05-04 18:27 48.93075 -1.02591 35990 ft 467 kts 354°
2026-05-04 18:28 48.99551 -1.03423 35994 ft 467 kts 354°
2026-05-04 18:28 49.06018 -1.04249 35993 ft 466 kts 354°
2026-05-04 18:29 49.12440 -1.05077 35998 ft 466 kts 354°
2026-05-04 18:29 49.18936 -1.05920 36000 ft 465 kts 354°
2026-05-04 18:30 49.28561 -1.07176 36004 ft 465 kts 354°
2026-05-04 18:31 49.35005 -1.08013 36002 ft 464 kts 355°
2026-05-04 18:31 49.41433 -1.08840 35999 ft 464 kts 355°
2026-05-04 18:32 49.47854 -1.09678 35704 ft 461 kts 354°
2026-05-04 18:32 49.51042 -1.10099 35458 ft 459 kts 355°
2026-05-04 18:32 49.54221 -1.10263 35211 ft 457 kts
2026-05-04 18:32 49.57350 -1.09555 34971 ft 454 kts 15°
2026-05-04 18:33 49.60330 -1.07983 34734 ft 451 kts 26°
2026-05-04 18:33 49.63058 -1.05636 34490 ft 447 kts 38°
2026-05-04 18:33 49.65527 -1.02754 34259 ft 445 kts 40°
2026-05-04 18:33 49.67979 -0.99835 34029 ft 444 kts 40°
2026-05-04 18:34 49.70423 -0.96928 33748 ft 443 kts 40°
2026-05-04 18:34 49.72906 -0.94140 33466 ft 443 kts 34°
2026-05-04 18:34 49.75649 -0.91960 33188 ft 443 kts 23°
2026-05-04 18:34 49.78587 -0.90520 32920 ft 443 kts 13°
2026-05-04 18:35 49.81633 -0.89840 32648 ft 442 kts
2026-05-04 18:35 49.84693 -0.89422 32379 ft 441 kts
2026-05-04 18:35 49.87734 -0.88994 32113 ft 438 kts
2026-05-04 18:35 49.90770 -0.88559 31851 ft 436 kts
2026-05-04 18:36 49.93784 -0.88126 31588 ft 434 kts
2026-05-04 18:36 49.96788 -0.87696 31329 ft 432 kts
2026-05-04 18:36 49.99776 -0.87266 31074 ft 431 kts
2026-05-04 18:36 50.02754 -0.86836 30821 ft 429 kts
2026-05-04 18:37 50.05720 -0.86410 30570 ft 427 kts
2026-05-04 18:37 50.08674 -0.85990 30319 ft 426 kts
2026-05-04 18:37 50.11622 -0.85574 30074 ft 424 kts
2026-05-04 18:37 50.14511 -0.85167 29795 ft 422 kts
2026-05-04 18:38 50.17471 -0.84751 29500 ft 420 kts
2026-05-04 18:38 50.20322 -0.84350 29215 ft 414 kts
2026-05-04 18:38 50.23178 -0.83945 28771 ft 411 kts
2026-05-04 18:38 50.26015 -0.83537 28345 ft 407 kts
2026-05-04 18:39 50.28819 -0.83128 27926 ft 403 kts
2026-05-04 18:39 50.31605 -0.82722 27493 ft 400 kts
2026-05-04 18:39 50.34359 -0.82321 27064 ft 396 kts
2026-05-04 18:39 50.37094 -0.81924 26628 ft 393 kts
2026-05-04 18:40 50.39810 -0.81531 26193 ft 391 kts
2026-05-04 18:40 50.42507 -0.81146 25754 ft 388 kts
2026-05-04 18:40 50.45189 -0.80765 25297 ft 386 kts
2026-05-04 18:40 50.47859 -0.80382 24845 ft 384 kts
2026-05-04 18:41 50.50520 -0.79994 24372 ft 383 kts
2026-05-04 18:41 50.53167 -0.79604 23901 ft 382 kts
2026-05-04 18:41 50.55801 -0.79213 23412 ft 381 kts
2026-05-04 18:41 50.58422 -0.78823 22916 ft 378 kts
2026-05-04 18:42 50.61035 -0.78438 22465 ft 375 kts
2026-05-04 18:42 50.63624 -0.78063 22012 ft 372 kts
2026-05-04 18:42 50.66192 -0.77690 21568 ft 369 kts
2026-05-04 18:42 50.68742 -0.77317 21126 ft 366 kts
2026-05-04 18:43 50.71270 -0.76946 20687 ft 364 kts
2026-05-04 18:43 50.73776 -0.76579 20255 ft 361 kts
2026-05-04 18:43 50.76270 -0.76214 19834 ft 359 kts
2026-05-04 18:43 50.78755 -0.75848 19407 ft 357 kts
2026-05-04 18:44 50.81187 -0.75231 18986 ft 354 kts 15°
2026-05-04 18:44 50.82675 -0.74485 18850 ft 348 kts 22°
2026-05-04 18:44 50.85564 -0.72663 18756 ft 336 kts 23°
2026-05-04 18:44 50.87720 -0.71279 18677 ft 334 kts 23°
2026-05-04 18:45 50.89866 -0.69893 18601 ft 333 kts 23°
2026-05-04 18:45 50.92008 -0.68502 18511 ft 332 kts 23°